User: anonymous   Login
Location: Unspecified
(0.0000°N, 0.0000°E)
Time: 04:35:48
(UTC+00:00)
Language:

EUTELSAT W3B - Orbit

View from above orbital plane
View from above orbital plane
View from above satellite
View from above satellite

Ground track
Ground track

The orbit data is extracted from the following two-line orbital elements,

1 37206U 10056A   19115.37845725 +.00000559 +00000-0 +19822-3 0  9992
2 37206 002.1589 258.8939 7117553 027.1991 356.6116 02.48411794074242
Epoch (UTC): 25 April 2019 09:04:58
Eccentricity: 0.7117553
inclination: 2.1589°
perigee height: 260 km
apogee height: 33042 km
right ascension of ascending node: 258.8939°
argument of perigee: 27.1991°
revolutions per day: 2.48411794
mean anomaly at epoch: 356.6116°
orbit number at epoch: 7424

The dashed part of the orbit path shows where the satellite is in the earth's shadow,  

DLR